Location: Alfortville
(48.8058°N, 2.4204°E)
Time: 22:01:48
(UTC+00:00)

SR - Pass Details

Date: 18 April 2026
Orbit: 568 x 852 km, 66.7° (Epoch: 19 May)

Event Time Altitude Azimuth Distance (km) Brightness Sun altitude
Rises 21:02:27 0° 326° (NW) 3,250 ? -19.7°
Reaches altitude 10° 21:04:55 10° 333° (NNW) 2,361 ? -20.0°
Maximum altitude 21:10:08 43° 45° (NE) 1,145 ? -20.6°
Enters shadow 21:12:17 31° 93° (E) 1,441 ? -20.8°
